IRIDIUM 921 [-]

Last updated on Wed Jun 28 2023 00:03:01 GMT+0000 (Coordinated Universal Time)

1 24873U 97034E 23177.54154164 .00013214 00000+0 56004-3 0 9995 2 24873 86.3876 101.9297 0007761 140.1435 220.0381 15.22996480420943

Satellite not in orbit

IRIDIUM 921 [-]